Location: Lake of the Woods (North-East)
(49.6672°N, 94.8656°W)
Time: 11:07:27
(UTC-05:00)

ISS - All Passes

Search period start: 29 March 2015 00:00
Search period end: 08 April 2015 00:00
Orbit: 396 x 406 km, 51.6° (Epoch: 29 March)

Date Brightness Start Highest point End Pass type
(mag) Time Alt. Az. Time Alt. Az. Time Alt. Az.
29 Mar - 00:34:12 10° SW 00:37:16 40° SSE 00:40:21 10° E night (unlit)
29 Mar - 02:10:21 10° W 02:13:36 68° N 02:16:50 10° ENE night (unlit)
29 Mar - 03:46:57 10° WNW 03:50:12 65° N 03:53:25 10° E visible
29 Mar - 05:23:26 10° WNW 05:26:33 44° SSW 05:29:39 10° SE visible
29 Mar - 23:41:16 10° SSW 23:44:01 25° SE 23:46:47 10° E night (unlit)
30 Mar - 01:16:54 10° WSW 01:20:11 86° NNW 01:23:26 10° ENE night (unlit)
30 Mar - 02:53:31 10° WNW 02:56:44 59° N 02:59:57 10° E night (unlit)
30 Mar - 04:30:00 10° WNW 04:33:13 68° SSW 04:36:26 10° ESE visible
30 Mar - 06:07:07 10° W 06:09:12 16° SW 06:11:12 10° S visible
30 Mar - 22:48:45 10° S 22:50:47 16° SE 22:52:53 10° E night (unlit)
31 Mar - 00:23:31 10° WSW 00:26:46 68° SSE 00:30:01 10° ENE night (unlit)
31 Mar - 02:00:01 10° W 02:03:15 59° N 02:06:28 10° ENE night (unlit)
31 Mar - 03:36:33 10° WNW 03:39:49 86° NNE 03:43:03 10° ESE visible
31 Mar - 05:13:13 10° W 05:15:58 25° SW 05:18:41 10° SSE visible
31 Mar - 23:30:15 10° SW 23:33:23 44° SSE 23:36:31 10° ENE night (unlit)
01 Apr - 01:06:29 10° W 01:09:45 66° N 01:12:59 10° ENE night (unlit)
01 Apr - 02:43:05 10° WNW 02:46:20 68° N 02:49:34 10° E night (unlit)
01 Apr - 04:19:35 10° W 04:22:39 40° SSW 04:25:42 10° SE visible
01 Apr - 22:37:11 10° SSW 22:40:01 28° SE 22:42:54 10° E night (unlit)
02 Apr - 00:12:58 10° WSW 00:16:14 81° NNW 00:19:30 10° ENE night (unlit)
02 Apr - 01:49:34 10° WNW 01:52:48 59° N 01:56:01 10° E night (unlit)
02 Apr - 03:26:02 10° WNW 03:29:15 62° SSW 03:32:27 10° ESE night (unlit)
02 Apr - 05:03:21 10° WSW 05:05:11 14° SW 05:06:56 10° S night (unlit)
02 Apr - 21:44:28 10° S 21:46:43 18° SE 21:49:01 10° E visible
02 Apr - 23:19:28 10° WSW 23:22:44 74° SSE 23:25:59 10° ENE night (unlit)
03 Apr - 00:56:00 10° W 00:59:13 58° N 01:02:27 10° E night (unlit)
03 Apr - 02:32:30 10° WNW 02:35:46 89° SSW 02:39:01 10° ESE night (unlit)
03 Apr - 04:09:15 10° W 04:11:53 23° SW 04:14:29 10° SSE night (unlit)
03 Apr - 20:52:48 10° SSE 20:53:26 10° SE 20:54:09 10° ESE visible
03 Apr - 22:26:05 10° SW 22:29:15 49° SSE 22:32:25 10° ENE visible
04 Apr - 00:02:23 10° W 00:05:38 63° N 00:08:52 10° ENE night (unlit)
04 Apr - 01:38:58 10° WNW 01:42:13 71° N 01:45:28 10° E night (unlit)
04 Apr - 03:15:28 10° W 03:18:30 36° SSW 03:21:31 10° SE night (unlit)
04 Apr - 21:32:53 10° SSW 21:35:48 31° SSE 21:38:45 10° E visible
04 Apr - 23:08:46 10° W 23:12:02 77° NNW 23:15:18 10° ENE visible
05 Apr - 00:45:22 10° WNW 00:48:36 61° N 00:51:50 10° E night (unlit)
05 Apr - 02:21:49 10° WNW 02:25:02 57° SSW 02:28:13 10° SE night (unlit)
05 Apr - 03:59:23 10° WSW 04:00:55 13° SW 04:02:21 10° SSW night (unlit)
05 Apr - 20:39:58 10° S 20:42:23 19° SE 20:44:51 10° E visible
05 Apr - 22:15:10 10° WSW 22:18:26 80° SSE 22:21:43 10° ENE visible
05 Apr - 23:51:43 10° W 23:54:58 58° N 23:58:11 10° E visible
06 Apr - 01:28:12 10° WNW 01:31:29 84° SSW 01:34:44 10° ESE night (unlit)
06 Apr - 03:05:01 10° W 03:07:33 21° SW 03:10:02 10° SSE night (unlit)
06 Apr - 19:47:47 10° SSE 19:49:01 12° SE 19:50:20 10° ESE daylight
06 Apr - 21:21:41 10° SW 21:24:53 54° SSE 21:28:04 10° ENE visible
06 Apr - 22:58:02 10° W 23:01:17 62° N 23:04:31 10° ENE visible
07 Apr - 00:34:36 10° WNW 00:37:51 74° NNE 00:41:06 10° E night (unlit)
07 Apr - 02:11:07 10° W 02:14:06 33° SSW 02:17:03 10° SSE night (unlit)
07 Apr - 20:28:20 10° SW 20:31:20 34° SSE 20:34:21 10° E visible
07 Apr - 22:04:19 10° W 22:07:35 73° NNW 22:10:51 10° ENE visible
07 Apr - 23:40:55 10° WNW 23:44:10 62° N 23:47:24 10° E visible
